Weather History for Szeged, Hungary

Change the Weather History Date:

Wednesday, November 20, 2013

  Actual Average (LRAR) Record (LRAR)
Temperature  
Mean Temperature 51 °F -  
Max Temperature 58 °F 42 °F 64 °F (2000)
Min Temperature 44 °F 30 °F 21 °F (1997)
Degree Days  
Heating Degree Days 14    
Growing Degree Days 1 (Base 50)    
Moisture  
Dew Point 42 °F    
Average Humidity 71    
Maximum Humidity 87    
Minimum Humidity 24    
Precipitation  
Precipitation 0.02 in 0.05 in - ()
Sea Level Pressure  
Sea Level Pressure 29.65 in    
Wind  
Wind Speed 16 mph ()    
Max Wind Speed 26 mph    
Max Gust Speed 38 mph    
Visibility 8.7 miles    
Events Rain    
Averages and records for this station are not official NWS values.
T = Trace of Precipitation, MM = Missing Value Source: Averaged Metar Reports

Daily Weather History Graph

Daily Weather History Graph

Search for Another Location

Airport:

Trip Planner

Search our weather history database for the weather conditions in past years. The results will help you decide how hot, cold, wet, or windy it might be!

Date:

Astronomy

Nov. 20, 2013 Rise Set
Actual Time 6:47 AM CET 4:02 PM CET
Civil Twilight 6:14 AM CET 4:35 PM CET
Nautical Twilight 5:37 AM CET 5:12 PM CET
Astronomical Twilight 5:02 AM CET 5:47 PM CET
Moon 6:28 PM CET (11/20) 9:00 AM CET (11/20)
Length of Visible Light 10h 20m
Length of Day
9h 14m
Waning Gibbous, 93% of the Moon is Illuminated
Nov 20
Waning Gibbous
Nov 25
Last Quarter
Dec 3
New
Dec 9
First Quarter
Dec 17
Full

Hourly Weather History & Observations

Time (CET) Temp. Windchill Dew Point Humidity Pressure Visibility Wind Dir Wind Speed Gust Speed Precip Events Conditions
12:27 AM 48.2 °F - 12.2 °F 24% 29.77 in - SSE 26.5 mph 38.0 mph N/A   Clear
12:45 AM 48.2 °F - 39.2 °F 71% 29.74 in - SSE 21.9 mph - N/A   Clear
1:00 AM 48 °F - 40 °F 64% 29.75 in 16 mi SSE 22.4 mph - -   Partly Cloudy
1:45 AM 46.4 °F 40.1 °F 39.2 °F 76% 29.74 in - SE 15.0 mph - N/A   Clear
2:45 AM 46.4 °F 41.1 °F 39.2 °F 76% 29.74 in - SSE 11.5 mph - N/A   Clear
3:45 AM 46.4 °F 40.4 °F 39.2 °F 76% 29.74 in - SSE 13.8 mph - N/A   Clear
4:45 AM 46.4 °F 40.4 °F 39.2 °F 76% 29.74 in - SSE 13.8 mph - N/A   Clear
5:15 AM 44.6 °F 38.4 °F 39.2 °F 81% 29.71 in - SSE 12.7 mph - N/A   Clear
5:45 AM 44.6 °F 38.4 °F 39.2 °F 81% 29.71 in - SSE 12.7 mph - N/A   Clear
6:15 AM 44.6 °F 38.4 °F 39.2 °F 81% 29.71 in - SSE 12.7 mph - N/A   Clear
6:45 AM 44.6 °F 38.1 °F 39.2 °F 81% 29.71 in - SSE 13.8 mph - N/A   Clear
7:00 AM 45 °F - 40 °F 75% 29.71 in 16 mi SSE 13.4 mph - -   Partly Cloudy
7:15 AM 44.6 °F 38.1 °F 39.2 °F 81% 29.71 in - SSE 13.8 mph - N/A   Clear
7:45 AM 46.4 °F 40.1 °F 41.0 °F 81% 29.71 in - SE 15.0 mph - N/A   Clear
8:15 AM 46.4 °F 40.1 °F 41.0 °F 81% 29.71 in - SSE 15.0 mph - N/A   Clear
8:45 AM 48.2 °F - 41.0 °F 76% 29.71 in - SSE 16.1 mph - N/A   Clear
9:15 AM 50.0 °F - 41.0 °F 71% 29.71 in - SSE 15.0 mph - N/A   Clear
9:45 AM 51.8 °F - 42.8 °F 71% 29.68 in - SSE 16.1 mph - N/A   Clear
9:54 AM 53.6 °F - 42.8 °F 67% 29.68 in - SSE 18.4 mph - N/A   Unknown
9:55 AM 53.6 °F - 42.8 °F 67% 29.71 in - SSE 18.4 mph - N/A   Clear
10:15 AM 53.6 °F - 44.6 °F 72% 29.68 in - SSE 18.4 mph 31.1 mph N/A   Clear
10:45 AM 55.4 °F - 44.6 °F 67% 29.68 in - SE 17.3 mph - N/A   Clear
11:15 AM 57.2 °F - 44.6 °F 63% 29.65 in - SSE 17.3 mph 29.9 mph N/A   Clear
11:45 AM 57.2 °F - 44.6 °F 63% 29.62 in - SSE 21.9 mph - N/A   Clear
12:15 PM 57.2 °F - 46.4 °F 67% 29.62 in - SSE 16.1 mph - N/A   Clear
12:45 PM 59.0 °F - 44.6 °F 59% 29.62 in - SE 17.3 mph - N/A   Clear
1:00 PM 58 °F - 45 °F 52% 29.62 in 22 mi SE 15.7 mph - -   Partly Cloudy
1:15 PM 57.2 °F - 44.6 °F 63% 29.59 in - SSE 13.8 mph - N/A   Clear
1:45 PM 57.2 °F - 44.6 °F 63% 29.59 in - SE 15.0 mph - N/A   Clear
2:15 PM 57.2 °F - 44.6 °F 63% 29.56 in - SE 17.3 mph 28.8 mph N/A   Clear
2:45 PM 55.4 °F - 44.6 °F 67% 29.56 in - SE 17.3 mph - N/A   Clear
3:15 PM 55.4 °F - 44.6 °F 67% 29.56 in - SSE 18.4 mph - N/A   Clear
3:45 PM 57.2 °F - 44.6 °F 63% 29.56 in - SSE 17.3 mph - N/A   Clear
4:15 PM 57.2 °F - 42.8 °F 59% 29.56 in - SE 18.4 mph - N/A   Clear
4:45 PM 55.4 °F - 42.8 °F 63% 29.56 in - SSE 18.4 mph - N/A   Clear
5:15 PM 55.4 °F - 42.8 °F 63% 29.56 in - SSE 19.6 mph - N/A   Clear
5:32 PM 55.4 °F - 42.8 °F 63% 29.59 in 6.2 mi SSE 17.3 mph - N/A Rain Light Rain
5:45 PM 53.6 °F - 44.6 °F 72% 29.56 in 6.2 mi SSE 18.4 mph - N/A Rain Light Rain
6:15 PM 51.8 °F - 44.6 °F 76% 29.56 in 6.2 mi SSE 19.6 mph - N/A Rain Light Rain
6:45 PM 51.8 °F - 44.6 °F 76% 29.59 in 6.2 mi South 17.3 mph - N/A Rain Light Rain
7:00 PM 52 °F - 44 °F 67% 29.59 in 12 mi South 15.7 mph - - Rain Light Rain
7:15 PM 51.8 °F - 44.6 °F 76% 29.59 in 6.2 mi South 13.8 mph - N/A   Scattered Clouds
7:45 PM 51.8 °F - 44.6 °F 76% 29.59 in 6.2 mi South 19.6 mph - N/A   Scattered Clouds
8:15 PM 50.0 °F - 44.6 °F 82% 29.62 in 6.2 mi SW 20.7 mph - N/A   Scattered Clouds
8:45 PM 48.2 °F - 44.6 °F 87% 29.62 in - SW 19.6 mph - N/A   Clear
9:45 PM 48.2 °F - 44.6 °F 87% 29.65 in - SW 17.3 mph - N/A   Clear
10:45 PM 48.2 °F - 44.6 °F 87% 29.68 in - WSW 10.4 mph - N/A   Clear
11:45 PM 48.2 °F - 44.6 °F 87% 29.68 in - WSW 9.2 mph - N/A   Clear